| time (UTC) | temp F | wind direction | speed MPH | gust MPH | rain 1hr in | rain 24hr in | rain mn in | humidity % | barometer mb |
| 20260507085547 | 42 | 198 | 2.0 | 2.0 | 0.00 | 0.64 | 0.00 | 99 | 1004.2 |
| 20260507084530 | 42 | 190 | 1.0 | 3.0 | 0.00 | 0.64 | 0.00 | 99 | 1004.2 |
| 20260507083516 | 41 | 225 | 2.0 | 3.0 | 0.00 | 0.64 | 0.00 | 99 | 1004.2 |
| 20260507082519 | 41 | 247 | 1.0 | 2.0 | 0.00 | 0.64 | 0.00 | 99 | 1004.3 |
| 20260507081523 | 41 | 254 | 0.0 | 2.0 | 0.00 | 0.64 | 0.00 | 99 | 1004.3 |
| 20260507080527 | 41 | 0.0 | 0.0 | 0.00 | 0.64 | 0.00 | 99 | 1004.1 | |
| 20260507075530 | 41 | 0.0 | 0.0 | 0.00 | 0.64 | 0.00 | 99 | 1004.2 | |
| 20260507074516 | 41 | 225 | 1.0 | 2.0 | 0.00 | 0.64 | 0.00 | 99 | 1004.2 |
| 20260507073520 | 41 | 0.0 | 0.0 | 0.00 | 0.64 | 0.00 | 99 | 1004.3 | |
| 20260507072523 | 41 | 249 | 1.0 | 3.0 | 0.00 | 0.64 | 0.00 | 99 | 1004.4 |
| 20260507071527 | 41 | 0.0 | 0.0 | 0.00 | 0.64 | 0.00 | 99 | 1004.4 | |
| 20260507070551 | 41 | 0.0 | 0.0 | 0.00 | 0.64 | 0.00 | 99 | 1004.4 | |
| 20260507065516 | 41 | 0.0 | 0.0 | 0.00 | 0.64 | 0.00 | 99 | 1004.4 | |
| 20260507064520 | 40 | 0.0 | 0.0 | 0.00 | 0.64 | 0.00 | 99 | 1004.6 | |
| 20260507063523 | 40 | 0.0 | 0.0 | 0.00 | 0.64 | 0.00 | 99 | 1004.7 | |
| 20260507062527 | 40 | 0.0 | 0.0 | 0.00 | 0.64 | 0.00 | 99 | 1004.7 | |
| 20260507061525 | 40 | 0.0 | 0.0 | 0.00 | 0.64 | 0.00 | 99 | 1004.7 | |
| 20260507060516 | 40 | 0.0 | 0.0 | 0.00 | 0.64 | 0.00 | 99 | 1004.9 | |
| 20260507055520 | 41 | 0.0 | 0.0 | 0.00 | 0.64 | 0.00 | 99 | 1005.1 | |
| 20260507054517 | 41 | 203 | 0.0 | 2.0 | 0.00 | 0.64 | 0.00 | 99 | 1004.9 |
| 20260507053515 | 41 | 0.0 | 1.0 | 0.00 | 0.64 | 0.00 | 99 | 1005.1 | |
| 20260507052551 | 41 | 0.0 | 0.0 | 0.00 | 0.64 | 0.00 | 99 | 1005.2 | |
| 20260507051517 | 42 | 211 | 1.0 | 2.0 | 0.00 | 0.64 | 0.00 | 98 | 1005.4 |
| 20260507050520 | 42 | 214 | 2.0 | 3.0 | 0.00 | 0.64 | 0.00 | 98 | 1005.3 |
| 20260507045604 | 42 | 158 | 1.0 | 2.0 | 0.00 | 0.64 | 0.00 | 98 | 1005.3 |
| 20260507044528 | 42 | 165 | 0.0 | 2.0 | 0.00 | 0.64 | 0.00 | 98 | 1005.4 |
| 20260507043551 | 43 | 194 | 1.0 | 3.0 | 0.00 | 0.64 | 0.00 | 98 | 1005.3 |
| 20260507042517 | 43 | 221 | 2.0 | 5.0 | 0.00 | 0.64 | 0.00 | 98 | 1005.3 |
| 20260507041521 | 43 | 237 | 3.0 | 6.0 | 0.00 | 0.64 | 0.00 | 98 | 1005.5 |
| 20260507040524 | 43 | 267 | 3.0 | 5.0 | 0.00 | 0.64 | 0.00 | 98 | 1005.4 |
| 20260507035528 | 43 | 242 | 3.0 | 4.0 | 0.00 | 0.64 | 0.00 | 98 | 1005.7 |
| 20260507034531 | 42 | 215 | 2.0 | 4.0 | 0.00 | 0.64 | 0.00 | 98 | 1005.9 |
| 20260507033517 | 42 | 186 | 2.0 | 4.0 | 0.00 | 0.64 | 0.00 | 98 | 1005.8 |
| 20260507032521 | 42 | 218 | 2.0 | 3.0 | 0.00 | 0.64 | 0.00 | 98 | 1005.8 |
| 20260507031524 | 42 | 210 | 2.0 | 3.0 | 0.00 | 0.64 | 0.00 | 98 | 1005.9 |
| 20260507030528 | 42 | 247 | 2.0 | 4.0 | 0.00 | 0.64 | 0.00 | 98 | 1005.7 |
| 20260507025531 | 42 | 225 | 3.0 | 5.0 | 0.00 | 0.64 | 0.00 | 98 | 1005.8 |
| 20260507024517 | 42 | 203 | 2.0 | 3.0 | 0.00 | 0.64 | 0.00 | 98 | 1006.0 |
| 20260507023521 | 42 | 244 | 2.0 | 3.0 | 0.00 | 0.64 | 0.00 | 98 | 1005.9 |
| 20260507022524 | 42 | 221 | 2.0 | 3.0 | 0.00 | 0.64 | 0.00 | 98 | 1005.9 |
| 20260507021528 | 42 | 211 | 2.0 | 3.0 | 0.00 | 0.64 | 0.00 | 97 | 1006.0 |
| 20260507020526 | 43 | 194 | 1.0 | 2.0 | 0.00 | 0.64 | 0.00 | 97 | 1005.9 |
| 20260507015517 | 43 | 195 | 2.0 | 3.0 | 0.00 | 0.64 | 0.00 | 97 | 1005.8 |
| 20260507014521 | 42 | 214 | 2.0 | 3.0 | 0.00 | 0.64 | 0.00 | 97 | 1005.6 |
| 20260507013519 | 43 | 135 | 0.0 | 1.0 | 0.00 | 0.65 | 0.00 | 97 | 1005.8 |
| 20260507012516 | 43 | 193 | 2.0 | 2.0 | 0.00 | 0.68 | 0.00 | 97 | 1005.9 |
| 20260507011532 | 43 | 240 | 2.0 | 3.0 | 0.00 | 0.72 | 0.00 | 97 | 1005.9 |
| 20260507010557 | 42 | 241 | 2.0 | 3.0 | 0.00 | 0.72 | 0.00 | 96 | 1005.8 |
| 20260507005521 | 43 | 229 | 1.0 | 2.0 | 0.00 | 0.74 | 0.00 | 96 | 1006.1 |
| 20260507004545 | 43 | 180 | 0.0 | 1.0 | 0.00 | 0.80 | 0.00 | 96 | 1006.0 |
| 20260507003528 | 43 | 250 | 1.0 | 3.0 | 0.00 | 0.82 | 0.00 | 95 | 1006.2 |
| 20260507002532 | 43 | 225 | 0.0 | 2.0 | 0.00 | 0.82 | 0.00 | 95 | 1006.2 |
| 20260507001518 | 44 | 225 | 0.0 | 2.0 | 0.00 | 0.82 | 0.00 | 95 | 1005.6 |
| 20260507000521 | 44 | 203 | 0.0 | 2.0 | 0.00 | 0.82 | 0.00 | 95 | 1005.7 |
| 20260506235525 | 44 | 0.0 | 0.0 | 0.00 | 0.82 | 0.00 | 95 | 1005.9 | |
| 20260506234549 | 45 | 0.0 | 0.0 | 0.00 | 0.84 | 0.00 | 94 | 1006.0 | |
| 20260506233532 | 45 | 201 | 1.0 | 3.0 | 0.00 | 0.84 | 0.00 | 94 | 1006.0 |
| 20260506232518 | 45 | 200 | 1.0 | 3.0 | 0.00 | 0.84 | 0.00 | 94 | 1006.0 |
| 20260506231521 | 45 | 0.0 | 0.0 | 0.00 | 0.84 | 0.00 | 94 | 1005.9 | |
| 20260506230525 | 45 | 135 | 1.0 | 2.0 | 0.00 | 0.84 | 0.00 | 94 | 1006.0 |
| 20260506225528 | 45 | 213 | 1.0 | 2.0 | 0.00 | 0.84 | 0.84 | 93 | 1005.9 |
| 20260506224532 | 45 | 189 | 1.0 | 2.0 | 0.01 | 0.84 | 0.84 | 93 | 1006.2 |
| 20260506223518 | 45 | 144 | 1.0 | 3.0 | 0.02 | 0.85 | 0.84 | 93 | 1006.2 |
| 20260506222521 | 45 | 146 | 0.0 | 2.0 | 0.02 | 0.85 | 0.84 | 93 | 1006.1 |
| 20260506221525 | 45 | 234 | 2.0 | 3.0 | 0.02 | 0.85 | 0.84 | 93 | 1006.0 |
| 20260506220529 | 45 | 221 | 2.0 | 3.0 | 0.02 | 0.89 | 0.84 | 93 | 1006.0 |
| 20260506215526 | 46 | 243 | 1.0 | 2.0 | 0.02 | 0.89 | 0.84 | 92 | 1005.9 |
| 20260506214518 | 46 | 264 | 2.0 | 3.0 | 0.01 | 0.88 | 0.83 | 92 | 1006.0 |
| 20260506213542 | 46 | 220 | 2.0 | 4.0 | 0.00 | 0.88 | 0.82 | 91 | 1005.9 |
| 20260506212519 | 46 | 227 | 2.0 | 3.0 | 0.00 | 0.88 | 0.82 | 91 | 1005.8 |
| 20260506211517 | 46 | 265 | 2.0 | 4.0 | 0.00 | 0.88 | 0.82 | 91 | 1005.9 |
| 20260506210555 | 46 | 263 | 2.0 | 3.0 | 0.00 | 0.88 | 0.82 | 91 | 1005.7 |
| 20260506205518 | 46 | 225 | 0.0 | 3.0 | 0.00 | 0.88 | 0.82 | 91 | 1006.2 |
| 20260506204542 | 46 | 285 | 2.0 | 3.0 | 0.00 | 0.88 | 0.82 | 90 | 1006.2 |
| 20260506203525 | 46 | 282 | 2.0 | 3.0 | 0.00 | 0.88 | 0.82 | 90 | 1006.4 |
| 20260506202529 | 47 | 284 | 3.0 | 5.0 | 0.00 | 0.88 | 0.82 | 90 | 1006.4 |
| 20260506201515 | 47 | 280 | 3.0 | 4.0 | 0.00 | 0.88 | 0.82 | 91 | 1006.0 |
| 20260506200519 | 47 | 286 | 2.0 | 3.0 | 0.00 | 0.89 | 0.82 | 92 | 1006.3 |
| 20260506195522 | 46 | 0.0 | 0.0 | 0.00 | 0.89 | 0.82 | 91 | 1006.0 | |
| 20260506194526 | 46 | 301 | 2.0 | 3.0 | 0.00 | 0.89 | 0.82 | 92 | 1006.6 |
| 20260506193529 | 46 | 296 | 2.0 | 3.0 | 0.00 | 0.89 | 0.82 | 92 | 1006.7 |
| 20260506192535 | 46 | 241 | 2.0 | 3.0 | 0.00 | 0.89 | 0.82 | 93 | 1006.8 |
| 20260506191519 | 46 | 280 | 2.0 | 3.0 | 0.02 | 0.89 | 0.82 | 93 | 1006.3 |
| 20260506190522 | 47 | 279 | 2.0 | 3.0 | 0.02 | 0.89 | 0.82 | 94 | 1006.3 |
| 20260506185526 | 46 | 255 | 1.0 | 3.0 | 0.03 | 0.89 | 0.82 | 94 | 1006.7 |
| 20260506184530 | 46 | 307 | 1.0 | 3.0 | 0.04 | 0.89 | 0.82 | 94 | 1006.5 |
| 20260506183515 | 46 | 305 | 2.0 | 3.0 | 0.06 | 0.89 | 0.82 | 94 | 1006.8 |
| 20260506182519 | 46 | 308 | 2.0 | 3.0 | 0.07 | 0.89 | 0.82 | 95 | 1007.1 |
| 20260506181522 | 45 | 281 | 2.0 | 3.0 | 0.06 | 0.87 | 0.80 | 95 | 1007.3 |
| 20260506180526 | 45 | 313 | 3.0 | 4.0 | 0.08 | 0.87 | 0.80 | 95 | 1007.4 |
| 20260506175529 | 45 | 250 | 2.0 | 3.0 | 0.08 | 0.86 | 0.79 | 95 | 1007.1 |
| 20260506174515 | 45 | 228 | 3.0 | 4.0 | 0.09 | 0.86 | 0.78 | 95 | 1007.5 |
| 20260506173519 | 45 | 308 | 2.0 | 2.0 | 0.08 | 0.84 | 0.76 | 95 | 1007.4 |
| 20260506172543 | 44 | 295 | 2.0 | 3.0 | 0.08 | 0.86 | 0.75 | 95 | 1007.4 |
| 20260506171520 | 44 | 260 | 2.0 | 3.0 | 0.08 | 0.90 | 0.74 | 95 | 1007.4 |
| 20260506170517 | 44 | 327 | 2.0 | 4.0 | 0.08 | 0.89 | 0.72 | 95 | 1008.0 |
| 20260506165535 | 44 | 297 | 3.0 | 4.0 | 0.09 | 0.88 | 0.71 | 95 | 1008.1 |
| 20260506164559 | 45 | 290 | 4.0 | 5.0 | 0.09 | 0.86 | 0.69 | 95 | 1008.0 |
| 20260506163522 | 45 | 302 | 3.0 | 4.0 | 0.10 | 0.85 | 0.68 | 95 | 1008.2 |
| 20260506162526 | 45 | 341 | 3.0 | 5.0 | 0.11 | 0.89 | 0.67 | 95 | 1008.3 |
| 20260506161530 | 45 | 317 | 3.0 | 5.0 | 0.13 | 1.03 | 0.66 | 95 | 1008.4 |
| 20260506160516 | 45 | 329 | 2.0 | 4.0 | 0.14 | 1.01 | 0.64 | 95 | 1008.6 |
| 20260506155539 | 45 | 309 | 3.0 | 5.0 | 0.14 | 0.99 | 0.62 | 95 | 1008.1 |
| 20260506154523 | 45 | 315 | 3.0 | 4.0 | 0.14 | 0.97 | 0.60 | 95 | 1008.6 |
| 20260506153546 | 45 | 304 | 4.0 | 5.0 | 0.14 | 0.95 | 0.58 | 95 | 1008.8 |
| 20260506152530 | 45 | 271 | 3.0 | 4.0 | 0.14 | 0.93 | 0.56 | 95 | 1008.8 |
| 20260506151516 | 45 | 273 | 2.0 | 3.0 | 0.13 | 0.90 | 0.53 | 95 | 1008.9 |
| 20260506150519 | 45 | 251 | 3.0 | 4.0 | 0.12 | 0.87 | 0.50 | 94 | 1008.5 |
| 20260506145523 | 45 | 283 | 3.0 | 5.0 | 0.12 | 0.85 | 0.48 | 94 | 1008.2 |
| 20260506144527 | 45 | 260 | 3.0 | 6.0 | 0.11 | 0.83 | 0.46 | 94 | 1008.5 |
| 20260506143530 | 45 | 308 | 4.0 | 6.0 | 0.10 | 0.81 | 0.44 | 94 | 1008.1 |
| 20260506142516 | 46 | 262 | 3.0 | 5.0 | 0.10 | 0.79 | 0.42 | 94 | 1008.1 |
| 20260506141520 | 46 | 261 | 4.0 | 5.0 | 0.08 | 0.77 | 0.40 | 94 | 1008.8 |
| 20260506140523 | 46 | 275 | 4.0 | 7.0 | 0.08 | 0.75 | 0.38 | 94 | 1007.9 |
| 20260506135527 | 46 | 261 | 4.0 | 7.0 | 0.08 | 0.73 | 0.36 | 94 | 1008.1 |
| 20260506134611 | 46 | 262 | 3.0 | 5.0 | 0.08 | 0.72 | 0.35 | 94 | 1007.9 |
| 20260506133516 | 46 | 297 | 5.0 | 7.0 | 0.08 | 0.71 | 0.34 | 94 | 1008.1 |
| 20260506132520 | 46 | 291 | 3.0 | 6.0 | 0.07 | 0.69 | 0.32 | 94 | 1008.2 |
| 20260506131523 | 46 | 266 | 4.0 | 6.0 | 0.08 | 0.69 | 0.32 | 94 | 1008.2 |
| 20260506130521 | 46 | 288 | 4.0 | 10.0 | 0.08 | 0.67 | 0.30 | 94 | 1008.0 |
| 20260506125519 | 46 | 280 | 4.0 | 7.0 | 0.07 | 0.65 | 0.28 | 93 | 1008.2 |
| 20260506124516 | 46 | 273 | 3.0 | 6.0 | 0.07 | 0.64 | 0.27 | 93 | 1008.1 |
| 20260506123540 | 46 | 280 | 4.0 | 6.0 | 0.06 | 0.63 | 0.26 | 93 | 1008.0 |
| 20260506122523 | 46 | 234 | 5.0 | 7.0 | 0.05 | 0.62 | 0.25 | 93 | 1007.9 |
| 20260506121527 | 48 | 279 | 4.0 | 6.0 | 0.04 | 0.61 | 0.24 | 93 | 1007.9 |
| 20260506120531 | 48 | 179 | 3.0 | 4.0 | 0.02 | 0.59 | 0.22 | 92 | 1008.1 |
| 20260506115516 | 48 | 212 | 3.0 | 6.0 | 0.01 | 0.58 | 0.21 | 92 | 1008.3 |
| 20260506114520 | 48 | 242 | 4.0 | 5.0 | 0.00 | 0.57 | 0.20 | 92 | 1008.0 |
| 20260506113544 | 49 | 228 | 4.0 | 6.0 | 0.00 | 0.57 | 0.20 | 91 | 1007.8 |
| 20260506112527 | 49 | 209 | 4.0 | 7.0 | 0.00 | 0.57 | 0.20 | 91 | 1007.6 |
| 20260506111531 | 49 | 227 | 4.0 | 6.0 | 0.00 | 0.57 | 0.20 | 91 | 1007.5 |
| 20260506110517 | 49 | 230 | 3.0 | 6.0 | 0.00 | 0.57 | 0.20 | 91 | 1007.1 |
| 20260506105520 | 49 | 192 | 3.0 | 6.0 | 0.00 | 0.57 | 0.20 | 91 | 1006.9 |
| 20260506104524 | 49 | 229 | 4.0 | 5.0 | 0.00 | 0.57 | 0.20 | 91 | 1006.5 |
| 20260506103528 | 49 | 204 | 3.0 | 5.0 | 0.00 | 0.57 | 0.20 | 91 | 1006.5 |
| 20260506102531 | 49 | 232 | 4.0 | 6.0 | 0.00 | 0.64 | 0.20 | 91 | 1006.5 |
| 20260506101517 | 50 | 213 | 4.0 | 5.0 | 0.00 | 0.64 | 0.20 | 91 | 1006.6 |
| 20260506100541 | 50 | 212 | 4.0 | 6.0 | 0.00 | 0.64 | 0.20 | 91 | 1006.5 |
| 20260506095524 | 50 | 196 | 3.0 | 5.0 | 0.00 | 0.64 | 0.20 | 91 | 1006.7 |
| 20260506094528 | 50 | 209 | 4.0 | 6.0 | 0.00 | 0.64 | 0.20 | 90 | 1006.5 |
| 20260506093531 | 50 | 196 | 2.0 | 4.0 | 0.00 | 0.64 | 0.20 | 90 | 1006.5 |
| 20260506092517 | 50 | 218 | 3.0 | 5.0 | 0.00 | 0.64 | 0.20 | 90 | 1006.6 |
| 20260506091521 | 50 | 227 | 3.0 | 5.0 | 0.00 | 0.64 | 0.20 | 90 | 1006.8 |
| 20260506090524 | 50 | 236 | 4.0 | 8.0 | 0.00 | 0.64 | 0.20 | 90 | 1006.9 |